Sunlight Mountain, CO

5:32 PM MDT on July 20, 2017 (GMT -0600)
Sunlight Mountain

Weather History for K5SM - August, 2013

Change the Weather History Date:

Sunday, August 18, 2013

  Actual Average (KRIL) Record (KRIL)
Temperature  
Mean Temperature 59 °F -  
Max Temperature 68 °F 87 °F 98 °F (1940)
Min Temperature 50 °F 50 °F 35 °F (1960)
Degree Days  
Heating Degree Days 6    
Growing Degree Days 9 (Base 50)    
Moisture  
Dew Point 41 °F    
Average Humidity 55    
Maximum Humidity 88    
Minimum Humidity 37    
Precipitation  
Precipitation 0.00 in - - ()
Sea Level Pressure  
Sea Level Pressure 30.62 in    
Wind  
Wind Speed 1 mph (SSE)    
Max Wind Speed 6 mph    
Max Gust Speed -    
Visibility 10 miles    
Events Rain , Thunderstorm    
Averages and records for this station are not official NWS values.
T = Trace of Precipitation, MM = Missing Value Source: NWS Daily Summary

Daily Weather History Graph

Daily Weather History Graph

Search for Another Location

Airport or City:

Trip Planner

Search our weather history database for the weather conditions in past years. The results will help you decide how hot, cold, wet, or windy it might be!

Date:

Astronomy

Aug. 18, 2013 Rise Set
Actual Time 6:25 AM MDT 8:00 PM MDT
Civil Twilight 5:56 AM MDT 8:29 PM MDT
Nautical Twilight 5:22 AM MDT 9:03 PM MDT
Astronomical Twilight 4:45 AM MDT 9:39 PM MDT
Moon 6:08 PM MDT (8/18) 3:38 AM MDT (8/18)
Length of Visible Light 14h 32m
Length of Day
13h 35m
Waxing Gibbous, 92% of the Moon is Illuminated
Aug 18
Waxing Gibbous
Aug 20
Full
Aug 28
Last Quarter
Sep 5
New
Sep 12
First Quarter

Hourly Weather History & Observations

Time (MDT) Temp. Dew Point Humidity Pressure Visibility Wind Dir Wind Speed Gust Speed Precip Events Conditions
12:08 AM 57.2 °F 37.4 °F 48% 30.62 in 10.0 mi Calm Calm - N/A   Clear
12:29 AM 57.2 °F 37.4 °F 48% 30.62 in 10.0 mi Calm Calm - N/A   Clear
12:49 AM 57.2 °F 37.4 °F 48% 30.62 in 10.0 mi Calm Calm - N/A   Scattered Clouds
1:09 AM 57.2 °F 37.4 °F 48% 30.62 in 10.0 mi Calm Calm - N/A   Clear
1:28 AM 55.4 °F 37.4 °F 51% 30.62 in 10.0 mi Calm Calm - N/A   Clear
1:49 AM 57.2 °F 37.4 °F 48% 30.62 in 10.0 mi Calm Calm - N/A   Clear
2:09 AM 55.4 °F 37.4 °F 51% 30.61 in 10.0 mi WSW 3.5 mph - N/A   Clear
2:29 AM 55.4 °F 37.4 °F 51% 30.61 in 10.0 mi Calm Calm - N/A   Scattered Clouds
2:49 AM 55.4 °F 37.4 °F 51% 30.61 in 10.0 mi Calm Calm - N/A   Scattered Clouds
3:09 AM 55.4 °F 37.4 °F 51% 30.60 in 10.0 mi Calm Calm - N/A   Clear
3:28 AM 55.4 °F 37.4 °F 51% 30.60 in 10.0 mi Calm Calm - N/A   Clear
3:49 AM 55.4 °F 37.4 °F 51% 30.60 in 10.0 mi Calm Calm - N/A   Clear
4:09 AM 55.4 °F 37.4 °F 51% 30.61 in 10.0 mi Calm Calm - N/A   Mostly Cloudy
4:29 AM 55.4 °F 37.4 °F 51% 30.61 in 10.0 mi Calm Calm - N/A   Overcast
4:49 AM 57.2 °F 37.4 °F 48% 30.61 in 10.0 mi Calm Calm - N/A   Mostly Cloudy
5:09 AM 55.4 °F 37.4 °F 51% 30.61 in 10.0 mi Calm Calm - N/A   Mostly Cloudy
5:29 AM 55.4 °F 37.4 °F 51% 30.62 in 10.0 mi Calm Calm - N/A   Mostly Cloudy
5:49 AM 55.4 °F 37.4 °F 51% 30.62 in 10.0 mi Calm Calm - N/A   Mostly Cloudy
6:08 AM 55.4 °F 37.4 °F 51% 30.62 in 10.0 mi Calm Calm - N/A   Mostly Cloudy
6:29 AM 55.4 °F 37.4 °F 51% 30.62 in 10.0 mi NW 3.5 mph - N/A   Overcast
6:49 AM 55.4 °F 37.4 °F 51% 30.63 in 10.0 mi NNW 3.5 mph - N/A   Mostly Cloudy
7:09 AM 55.4 °F 37.4 °F 51% 30.63 in 10.0 mi NNE 4.6 mph - N/A   Scattered Clouds
7:29 AM 59.0 °F 37.4 °F 45% 30.63 in 10.0 mi Calm Calm - N/A   Mostly Cloudy
7:49 AM 57.2 °F 37.4 °F 48% 30.63 in 10.0 mi Calm Calm - N/A   Scattered Clouds
8:09 AM 57.2 °F 37.4 °F 48% 30.64 in 10.0 mi Calm Calm - N/A   Scattered Clouds
8:28 AM 59.0 °F 37.4 °F 45% 30.64 in 10.0 mi Calm Calm - N/A   Mostly Cloudy
8:49 AM 59.0 °F 41.0 °F 51% 30.64 in 10.0 mi Calm Calm - N/A   Mostly Cloudy
9:09 AM 60.8 °F 41.0 °F 48% 30.64 in 10.0 mi Calm Calm - N/A   Scattered Clouds
9:29 AM 60.8 °F 41.0 °F 48% 30.64 in 10.0 mi Calm Calm - N/A   Mostly Cloudy
9:49 AM 60.8 °F 41.0 °F 48% 30.64 in 10.0 mi Calm Calm - N/A   Scattered Clouds
10:09 AM 62.6 °F 39.2 °F 42% 30.65 in 10.0 mi Calm Calm - N/A   Clear
10:29 AM 62.6 °F 41.0 °F 45% 30.66 in 10.0 mi Calm Calm - N/A   Clear
10:49 AM 60.8 °F 42.8 °F 52% 30.66 in 10.0 mi WNW 3.5 mph - N/A   Scattered Clouds
11:09 AM 60.8 °F 41.0 °F 48% 30.66 in 10.0 mi Calm Calm - N/A   Scattered Clouds
11:27 AM 62.6 °F 41.0 °F 45% 30.66 in 10.0 mi Calm Calm - N/A   Scattered Clouds
11:49 AM 62.6 °F 41.0 °F 45% 30.66 in 10.0 mi NW 3.5 mph - N/A   Scattered Clouds
12:09 PM 64.4 °F 41.0 °F 42% 30.66 in 10.0 mi NNW 4.6 mph - N/A   Clear
12:29 PM 66.2 °F 41.0 °F 40% 30.65 in 10.0 mi Calm Calm - N/A Thunderstorm Thunderstorm
12:49 PM 68.0 °F 41.0 °F 37% 30.64 in 10.0 mi West 3.5 mph - N/A   Clear
1:08 PM 68.0 °F 41.0 °F 37% 30.63 in 10.0 mi Calm Calm - N/A Thunderstorm Clear
1:28 PM 64.4 °F 39.2 °F 40% 30.64 in 10.0 mi Calm Calm - N/A Thunderstorm Thunderstorm
1:49 PM 62.6 °F 42.8 °F 48% 30.64 in 10.0 mi Calm Calm - N/A   Mostly Cloudy
2:09 PM 60.8 °F 44.6 °F 55% 30.64 in 10.0 mi Calm Calm - N/A Rain Rain
2:29 PM 51.8 °F 48.2 °F 88% 30.63 in 4.0 mi SSW 3.5 mph - N/A Rain Light Rain
2:49 PM 60.8 °F 50.0 °F 68% 30.62 in 10.0 mi Calm Calm - N/A   Mostly Cloudy
3:09 PM 55.4 °F 50.0 °F 82% 30.62 in 5.0 mi SSW 3.5 mph - N/A Rain , Thunderstorm Rain
3:29 PM 55.4 °F 51.8 °F 88% 30.62 in 7.0 mi Calm Calm - N/A Rain , Thunderstorm Light Thunderstorms and Rain
3:48 PM 60.8 °F 50.0 °F 68% 30.62 in 10.0 mi Calm Calm - N/A   Mostly Cloudy
4:09 PM 60.8 °F 48.2 °F 63% 30.62 in 10.0 mi Calm Calm - N/A   Overcast
4:29 PM 62.6 °F 44.6 °F 52% 30.61 in 10.0 mi Calm Calm - N/A   Mostly Cloudy
4:49 PM 59.0 °F 46.4 °F 63% 30.60 in 10.0 mi Calm Calm - N/A Thunderstorm Mostly Cloudy
5:09 PM 59.0 °F 44.6 °F 59% 30.61 in 10.0 mi Calm Calm - N/A Rain , Thunderstorm Light Thunderstorms and Rain
5:29 PM 57.2 °F 44.6 °F 63% 30.61 in 10.0 mi Calm Calm - N/A Rain Light Rain
5:49 PM 55.4 °F 44.6 °F 67% 30.61 in 10.0 mi Calm Calm - N/A Rain , Thunderstorm Light Thunderstorms and Rain
6:09 PM 59.0 °F 44.6 °F 59% 30.61 in 10.0 mi Calm Calm - N/A Thunderstorm Overcast
6:29 PM 59.0 °F 44.6 °F 59% 30.60 in 10.0 mi Calm Calm - N/A Thunderstorm Mostly Cloudy
6:49 PM 57.2 °F 42.8 °F 59% 30.60 in 10.0 mi SSE 3.5 mph - N/A   Scattered Clouds
7:09 PM 55.4 °F 42.8 °F 63% 30.61 in 10.0 mi SE 4.6 mph - N/A   Scattered Clouds
7:29 PM 55.4 °F 42.8 °F 63% 30.61 in 10.0 mi ESE 3.5 mph - N/A   Mostly Cloudy
7:48 PM 51.8 °F 46.4 °F 82% 30.62 in 2.5 mi East 3.5 mph - N/A Rain Heavy Rain
8:09 PM 50.0 °F 44.6 °F 82% 30.60 in 10.0 mi SE 4.6 mph - N/A   Light Drizzle
8:29 PM 51.8 °F 44.6 °F 76% 30.61 in 10.0 mi SE 5.8 mph - N/A   Scattered Clouds
8:49 PM 51.8 °F 42.8 °F 71% 30.61 in 10.0 mi SE 4.6 mph - N/A   Clear
9:09 PM 53.6 °F 42.8 °F 67% 30.61 in 10.0 mi SE 3.5 mph - N/A   Clear
9:29 PM 53.6 °F 41.0 °F 62% 30.62 in 10.0 mi SE 4.6 mph - N/A   Clear
9:49 PM 53.6 °F 41.0 °F 62% 30.62 in 10.0 mi SE 3.5 mph - N/A   Clear
10:08 PM 53.6 °F 41.0 °F 62% 30.63 in 10.0 mi Calm Calm - N/A   Clear
10:28 PM 53.6 °F 41.0 °F 62% 30.63 in 10.0 mi SE 3.5 mph - N/A   Clear
10:49 PM 55.4 °F 39.2 °F 54% 30.63 in 10.0 mi SSE 3.5 mph - N/A   Clear
11:09 PM 55.4 °F 37.4 °F 51% 30.64 in 10.0 mi SE 3.5 mph - N/A   Clear
11:29 PM 55.4 °F 37.4 °F 51% 30.64 in 10.0 mi Calm Calm - N/A   Clear
11:49 PM 55.4 °F 37.4 °F 51% 30.64 in 10.0 mi Calm Calm - N/A   Clear